Hourly Data Report for September 07, 2017

All times are specified in Local Standard Time (LST). Add 1 hour to adjust for Daylight Saving Time where and when it is observed.

CHARLOTTETOWN A
PRINCE EDWARD ISLAND

46°17'21.000" N
63°07'09.000" W
48.50 m
8300301
71706
YYG

Download Data

Hourly Data (September 2017)
Hourly Data Report for September 7, 2017
Temp Definition
°C
Dew Point Temp Definition
°C
Rel Hum Definition
%
Wind Dir Definition
10's deg

Wind Spd Definition
km/h
Visibility Definition
km
Stn Press Definition
kPa
Hmdx Definition


Wind Chill Definition


Weather Definition


TIME
00:00 Legend Double Dagger 21.3 19.9 91 18 21 24.1 101.18 29   LegendNANA
01:00 Legend Double Dagger 21.1 19.9 93 17 25 19.3 101.13 29   LegendNANA
02:00 Legend Double Dagger 20.8 19.7 93 16 28 24.1 101.09 28   Cloudy
03:00 Legend Double Dagger 20.5 19.5 94 17 22 19.3 101.07 28   LegendNANA
04:00 Legend Double Dagger 20.3 19.5 95 16 27 12.9 101.02 27   LegendNANA
05:00 Legend Double Dagger 20.4 19.7 95 17 24 16.1 100.96 28   Cloudy
06:00 Legend Double Dagger 20.8 20.0 95 16 26 19.3 100.89 28   LegendNANA
07:00 Legend Double Dagger 21.3 20.3 94 16 28 24.1 100.80 29   LegendNANA
08:00 Legend Double Dagger 21.4 20.7 96 16 26 4.8 100.72 30   Rain
09:00 Legend Double Dagger 21.8 21.1 96 17 37 24.1 100.63 30   Rain
10:00 Legend Double Dagger 22.0 21.0 94 17 26 24.1 100.59 30   Rain
11:00 Legend Double Dagger 21.9 21.1 95 17 30 9.7 100.53 30   Rain,Fog
12:00 Legend Double Dagger 22.5 22.0 97 18 29 4.8 100.45 32   Rain,Fog
13:00 Legend Double Dagger 22.6 21.2 92 20 36 9.7 100.43 31   Moderate Rain Showers,Fog
14:00 Legend Double Dagger 22.2 21.2 94 18 39 24.1 100.31 31   Rain
15:00 Legend Double Dagger 21.7 20.6 93 18 41 24.1 100.27 30   Rain
16:00 Legend Double Dagger 21.6 20.2 91 18 41 24.1 100.21 29   Rain
17:00 Legend Double Dagger 22.3 20.2 88 19 45 24.1 100.19 30   Rain
18:00 Legend Double Dagger 22.0 19.8 87 20 36 19.3 100.22 29   Moderate Rain Showers
19:00 Legend Double Dagger 20.1 19.3 95 20 22 16.1 100.25 27   Drizzle
20:00 Legend Double Dagger 20.4 19.8 96 20 18 24.1 100.34 28   Cloudy
21:00 Legend Double Dagger 20.1 19.0 94 21 18 24.1 100.38 27   LegendNANA
22:00 Legend Double Dagger 19.7 17.0 84 22 24 24.1 100.42     LegendNANA
23:00 Legend Double Dagger 19.0 17.0 88 22 20 24.1 100.44     Cloudy

Notes on Data Quality.

Legend

  • E = Estimated
  • M = Missing
  • NA = Not Available
  • ‡ = Partner data that is not subject to review by the National Climate Archives
Date modified: